Regional Weather Roundup
Issued by NWS

Home | Current Version | Previous Version | Graphics & Text | Print | Product List | Glossary On
Versions: 1 2 3 4 5 6 7 8 9 10 11 12 13 14 15 16 17 18 19 20 21 22 23 24 25 26 27 28 29 30 31 32 33 34 35 36 37 38 39 40 41 42 43 44 45 46 47 48 49 50
000
ASUS43 KBIS 312110
RWRND

NORTH DAKOTA REGIONAL WEATHER ROUNDUP
NATIONAL WEATHER SERVICE BISMARCK ND
400 PM CDT TUE MAY 31 2016

NOTE: "FAIR" INDICATES FEW OR NO CLOUDS BELOW 12,000 FEET WITH NO
SIGNIFICANT WEATHER AND/OR OBSTRUCTIONS TO VISIBILITY.


NDZ001>003-009>011-017-312200-
NORTHWEST NORTH DAKOTA

CITY           SKY/WX    TMP DP  RH WIND       PRES   REMARKS
WILLISTON      LGT RAIN  54  50  86 N20G31    29.86R
MINOT          PTSUNNY   67  47  48 VRB5      29.63R
MINOT AFB      PTSUNNY   61  55  81 N22G29    29.62R
$$

NDZ018>021-031>035-040>046-312200-
SOUTHWEST NORTH DAKOTA

CITY           SKY/WX    TMP DP  RH WIND       PRES   REMARKS
BISMARCK       LGT RAIN  53  50  89 W5        29.64F
DICKINSON      LGT RAIN  50  46  86 NW30G44   29.78R
GARRISON         N/A     62  50  64 W5        29.64R
HETTINGER ARPT LGT RAIN  52  47  83 NW33G41   29.84R
$$

NDZ004>008-012>016-024-026-027-054-312200-
NORTHEAST NORTH DAKOTA

CITY           SKY/WX    TMP DP  RH WIND       PRES   REMARKS
GRAND FORKS    PTSUNNY   65  47  52 S16       29.68S
GRND FRKS AFB  PTSUNNY   65  48  52 SW14      29.68F
DEVILS LAKE    CLOUDY    61  48  62 S13       29.65F
$$

NDZ022-023-025-028>030-036>039-047>053-312200-
SOUTHEAST NORTH DAKOTA

CITY           SKY/WX    TMP DP  RH WIND       PRES   REMARKS
FARGO          CLOUDY    68  45  43 SW20      29.72F
JAMESTOWN      CLOUDY    63  47  55 SW20G29   29.66F
$$




USA.gov is the U.S. government's official web portal to all federal, state and local government web resources and services.